CANX-5

Last updated on Sun Apr 12 2026 00:03:55 GMT+0000 (Coordinated Universal Time)

1 40056U 14034D 26101.40822049 .00000736 00000+0 10192-3 0 9997 2 40056 98.3222 334.2807 0011824 221.9524 138.0782 14.81162354625457
UTC large
Height (km)
Speed (km/s)
/
Latitude / Longitude
Inclination (degrees)
Orbital Period (minutes)
Azimuth
Elevation
Range (km)
Doppler Factor

Next 0 passes for location: London (51.5072 / 0.1276)

Sorry there are no passes over London.
CANX-5